DELTA 1 R/B, 9063

Orbit data source: Space-Track

DELTA 1 R/B, 9063 is space debris in SSO originally from a launch on Thu, 29 Jul 1976 UTC launched from the Air Force Western Test Range (AFWTR). Debris objects in space refer to the collection of defunct objects orbiting the Earth. Examples of debris include non-operational satellites, rocket bodies, and fragments generated from explosions, collisions, or faulty payload assembly.

Loading next visibility...
Identifier
9063, 1976-077B
Orbit
SSO
Country
Flag of USUS
Related business
Manufacturer
MDAC-HB
Mission
Spacecraft
Bus & Motor
DELTA/TR-201, Unknown motor
Mass
845 kg wet, 845 kg dry
Launch date (UTC)
1976-07-29 (50 years ago)
Launch vehicle
Unknown
Launch site
Air Force Western Test Range (AFWTR)
Object type
Payload
Rocket body
Debris
Shape & HBR
Unknown
Radar Cross Section
Large (>1 m²)

Expand to show TLE details & history
Last TLE update: 7 hours ago

TLE from 7 hours ago
0 DELTA 1 R/B
1 09063U 76077B   26171.22229324 -.00000042  00000-0  24418-4 0  9998
2 09063 102.0421 165.1055 0061531  22.9291 347.8972 12.50506952319484
Epoch: 2026-06-20T05:20Z
TLE epoch observation values (Epoch: 2026-06-20T05:20:06.135Z)
Latitude
10.39376°
Longitude
174.40855°
Altitude
1,417.03 km
Speed
7.174 km/s
True Right ascension
10h 51m 29s
True Declination
10° 20' 17"
Sunlit
Object was in daylight at epoch
Visualization orbit readout
Latitude
Unknown
Longitude
Unknown
Altitude
Unknown
Speed
Unknown
Apparent Right ascension
Unknown
Apparent Declination
Unknown
Sunlit
N/A
Visualization observer readout
Local Sidereal Time
23:41:56
Azimuth
Unknown
Elevation
Unknown
Doppler factor
Unknown
Orbital elements
Apogee altitude
1,508.167 km
Perigee altitude
1,411.71 km
Semi-major axis
7,838.076 km
Eccentricity
0.00615
Inclination
102.0421°
RAAN
165.1055°
Arg. of periapsis
22.9291°
True anomaly
347.74825°
Mean anomaly
347.8972°
Eccentric anomaly
347.82284°
Mean motion
3.12773 °/min
Orbital period
115.1 mins
BSTAR
0.000024418
Loading maneuver chart data...
Computing Atmospheric mass density...
Loading historical data...
Loading historical data...
Loading historical data...
Loading historical data...
Loading historical data...
Loading historical data...
Loading historical data...

Documentation

Showing up to 5 results
|